DW5914 Weather Reports


Display with metric or nautical units.
time (UTC)temp
F
wind
direction
speed
MPH
gust
MPH
rain 1hr
in
rain 24hr
in
rain mn
in
humidity
%
barometer
mb
20260504081502 62 135 1.0 3.0 0.00 0.00 0.00 57 1011.0
20260504044549 66 40 3.0 5.0 0.00 0.00 0.00 50 1011.0
20260504043053 66 57 3.0 7.0 0.00 0.00 0.00 50 1010.9
20260504041549 66 31 2.0 6.0 0.00 0.00 0.00 50 1010.9
20260504040107 66 55 3.0 5.0 0.00 0.00 0.00 50 1010.9
20260504034548 68 348 2.0 5.0 0.00 0.00 0.00 47 1010.8
20260504033050 67 51 2.0 6.0 0.00 0.00 0.00 46 1010.7
20260504031555 66 78 0.0 3.0 0.00 0.00 0.00 51 1010.6
20260504030045 66 40 0.0 3.0 0.00 0.00 0.00 53 1010.7
20260504024545 66 26 2.0 6.0 0.00 0.00 0.00 53 1010.7
20260504023044 66 360 4.0 8.0 0.00 0.00 0.00 53 1010.7
20260504021543 64 55 3.0 6.0 0.00 0.00 0.00 57 1010.9
20260504020043 65 56 2.0 6.0 0.00 0.00 0.00 57 1011.1
20260504014542 66 30 4.0 10.0 0.00 0.00 0.00 54 1011.1
20260504013042 65 63 4.0 10.0 0.00 0.00 0.00 57 1011.3
20260504011540 65 22 4.0 12.0 0.00 0.00 0.00 57 1011.5
20260504010036 65 360 5.0 10.0 0.00 0.00 0.00 57 1011.5
20260504004536 66 5 5.0 9.0 0.00 0.00 0.00 57 1011.6
20260504003034 65 360 4.0 9.0 0.00 0.00 0.00 59 1011.7
20260504001538 68 335 5.0 9.0 0.00 0.00 0.00 50 1011.8
20260504000032 70 51 4.0 8.0 0.00 0.00 0.00 46 1012.0
20260503234532 68 51 2.0 8.0 0.00 0.00 0.00 51 1012.1
20260503233034 68 355 3.0 8.0 0.00 0.00 0.00 52 1012.2
20260503231521 66 26 3.0 9.0 0.00 0.00 0.00 56 1012.5
20260503230019 67 51 6.0 12.0 0.00 0.00 0.00 53 1012.7
20260503224518 67 13 3.0 10.0 0.00 0.00 0.00 56 1012.9
20260503223015 66 315 3.0 10.0 0.00 0.00 0.00 58 1013.1
20260503221521 65 331 3.0 9.0 0.00 0.00 0.00 61 1013.3
20260503220009 64 49 5.0 10.0 0.00 0.00 0.00 64 1013.4
20260503214511 65 25 5.0 11.0 0.00 0.00 0.00 62 1013.7
20260503213005 65 22 5.0 11.0 0.00 0.00 0.00 62 1013.9
20260503211503 64 5 3.0 7.0 0.00 0.00 0.00 66 1014.0
20260503210002 64 18 4.0 8.0 0.00 0.00 0.00 66 1014.1
20260503204559 64 35 4.0 10.0 0.00 0.00 0.00 63 1014.4
20260503203058 64 329 3.0 11.0 0.00 0.00 0.00 64 1014.6
20260503201553 62 325 6.0 14.0 0.00 0.00 0.00 68 1014.9
20260503200056 61 42 6.0 13.0 0.00 0.00 0.00 70 1015.0
20260503194558 61 355 6.0 20.0 0.00 0.00 0.00 70 1015.2
20260503193049 62 287 5.0 10.0 0.00 0.00 0.00 71 1015.2
20260503191552 63 344 3.0 9.0 0.00 0.00 0.00 71 1015.3
20260503190048 62 330 4.0 7.0 0.00 0.00 0.00 72 1015.4
20260503184542 61 360 2.0 8.0 0.00 0.00 0.00 74 1015.6
20260503183041 61 329 3.0 9.0 0.00 0.00 0.00 74 1015.9
20260503181539 60 349 4.0 10.0 0.00 0.00 0.00 76 1016.0
20260503180036 59 10 2.0 10.0 0.00 0.00 0.00 78 1016.0
20260503174535 59 5 4.0 11.0 0.00 0.00 0.00 79 1016.2
20260503173038 59 360 3.0 12.0 0.00 0.00 0.00 79 1016.3
20260503171535 58 341 4.0 10.0 0.00 0.00 0.00 81 1016.4